STARLINK-35307, 66013

Orbit data source: Space-Track

STARLINK-35307, 66013 is a payload satellite owned by SpaceX/Seattle (US) in LEO that was launched on Thu, 16 Oct 2025 UTC via an FALCON 9 launch vehicle from the Air Force Eastern Test Range (AFETR). Payload-class satellites include a variety of spacecraft equipped with specific instruments for various scientific and technological missions. These include communications satellites like Starlink; space stations such as the ISS; scientific satellites like the Hubble; Earth observation satellites from companies like Planet Labs, Umbra, and HawkEye 360; GPS; miniature CubeSats for education and research; and military/defense satellites.

Loading next visibility...
Identifier
66013, 2025-232J
Orbit
LEO
Country
Flag of USUS
Related business
Manufacturer
SpaceX/Seattle
Mission
Operational spacecraft
Bus & Motor
STARLINK V2MO, Unknown motor
Mass
575 kg wet, ~530 kg dry
Launch date (UTC)
2025-10-16 (1 week ago)
Launch vehicle
FALCON 9
Launch site
Air Force Eastern Test Range (AFETR)
Object type
Payload
Rocket body
Debris
Shape & HBR
Unknown shape, 17.7 m
Radar Cross Section
RCS unknown

Expand to show TLE details & history
Last TLE update: 8 hours ago

TLE from 8 hours ago
0 STARLINK-35307
1 66013U 25232J   25298.91668981 -.01438968  00000-0 -64763-2 0  9993
2 66013  53.1558  15.2314 0000904  71.1246  48.9258 15.86313675  1805
Epoch: 2025-10-25T22:00Z
TLE epoch observation values (Epoch: 2025-10-25T22:00:01.999Z)
Latitude
43.98218°
Longitude
144.70597°
Altitude
316.671 km
Speed
7.724 km/s
True Right ascension
09h 57m 01s
True Declination
43° 47' 56"
Sunlit
Object was in daylight at epoch
Visualization orbit readout
Latitude
Unknown
Longitude
Unknown
Altitude
Unknown
Speed
Unknown
Apparent Right ascension
Unknown
Apparent Declination
Unknown
Sunlit
N/A
Visualization observer readout
Local Sidereal Time
01:16:02
Azimuth
Unknown
Elevation
Unknown
Doppler factor
Unknown
Orbital elements
Apogee altitude
313.496 km
Perigee altitude
312.287 km
Semi-major axis
6,691.028 km
Eccentricity
0.00009
Inclination
53.1558°
RAAN
15.2314°
Arg. of periapsis
71.1246°
True anomaly
48.93361°
Mean anomaly
48.9258°
Eccentric anomaly
48.9297°
Mean motion
3.96555 °/min
Orbital period
90.78 mins
BSTAR
-0.0064763
Loading maneuver chart data...
Computing Atmospheric mass density...
Loading historical data...
Loading historical data...
Loading historical data...
Loading historical data...
Loading historical data...
Loading historical data...
Loading historical data...

Documentation

Showing up to 5 results
|